Home > Weather > Johor Bahru > Past weeks

Flag for Malaysia Weather for the Past 2 Weeks in Johor Bahru, Malaysia

Now
82 °F

Partly sunny.


Feels Like: 92 °F
Forecast: 79 / 93 °F
Wind: No wind

Location: Singapore / Paya Lebar

Current Time: May 5, 2016 at 8:02:27 AM

Latest Report: May 5, 2016 at 7:00 AM


Visibility: N/A

Pressure: 29.77 "Hg

Humidity: 89%

Dew Point: 79 °F

Location of Johor BahruLocation

Historic Weather in Johor Bahru — Graph

°F

Johor Bahru Temperature Yesterday

Maximum temperature yesterday: 97 °F (at 2:00 PM)
Minimum temperature yesterday: 82 °F (at 7:00 AM)
Average temperature yesterday: 90 °F

High & Low Weather Summary for the Past Weeks

 TemperatureHumidityPressure
High97 °F (Apr 21, 3:00 PM)94% (Apr 24, 7:00 AM)29.86 "Hg (Apr 24, 7:00 AM)
Low79 °F (Apr 25, 7:00 AM)39% (May 3, 3:00 PM)29.68 "Hg (Apr 24, 5:00 PM)
Average87 °F75%29.79 "Hg
* Reported Apr 20 7:00 AM — May 5 7:00 AM, Johor Bahru, Weather by CustomWeather, © 2016

Note: Actual official high and low records may vary slightly from our data, if they occured in-between our weather recording intervals... More about our weather records

Advertising

Johor Bahru Weather History for the Previous 24 Hours

Scroll right to see more
 ConditionsComfort  
Time TempWeatherWind HumidityBarometerVisibility
7:00 AM
Thu, May 5
82 °FPartly sunny.No wind89%29.77 "HgN/A
6:00 AM82 °FPassing clouds.No wind89%29.77 "HgN/A
5:00 AM84 °FPassing clouds.No wind84%29.77 "HgN/A
11:00 PM
Wed, May 4
86 °FPassing clouds.3 mph75%29.83 "HgN/A
10:00 PM88 °FPassing clouds.6 mph70%29.80 "HgN/A
9:00 PM88 °FPassing clouds.7 mph70%29.77 "HgN/A
8:00 PM90 °FPassing clouds.5 mph67%29.74 "HgN/A
7:00 PM91 °FPartly sunny.7 mph63%29.71 "HgN/A
6:00 PM93 °FPartly sunny.8 mph56%29.68 "HgN/A
5:00 PM97 °FPartly sunny.7 mph53%29.68 "HgN/A
4:00 PM97 °FPartly sunny.8 mph47%29.71 "HgN/A
3:00 PM97 °FPartly sunny.8 mph47%29.71 "HgN/A
2:00 PM97 °FPartly sunny.8 mph50%29.74 "HgN/A
1:00 PM95 °FPartly sunny.8 mph53%29.77 "HgN/A
12:00 PM93 °FPartly sunny.9 mph59%29.80 "HgN/A
11:00 AM91 °FPartly sunny.8 mph59%29.83 "HgN/A
10:00 AM90 °FPartly sunny.7 mph67%29.83 "HgN/A
9:00 AM86 °FPartly sunny.6 mph79%29.83 "HgN/A
8:00 AM84 °FPartly sunny.3 mph84%29.80 "HgN/A
Weather by CustomWeather, © 2016

See weather overviewHow to use our weather pages